Terminal Aerodrome Forecast
Issued by NWS

Home | Current Version | Previous Version | Text Only | Print | Product List | Glossary On
Versions: 1 2 3 4 5 6 7 8 9 10 11 12 13 14 15 16 17 18 19 20 21 22 23 24 25 26 27 28 29 30 31 32 33 34 35 36 37 38 39 40 41 42 43 44 45 46 47 48 49 50
000
FTUS46 KPQR 272055 AAB
TAFONP
TAF AMD
KONP 272055Z 2721/2818 33013G20KT P6SM OVC003
     FM280000 36011KT 1SM BR BKN005
     FM280600 36005KT 1/2SM FG OVC001
     FM281500 VRB03KT 1SM BR OVC003=

USA.gov is the U.S. government's official web portal to all federal, state and local government web resources and services.